WetterOnline ( http://www.wetteronline.de )

Wetter aktuell Freising

Aktuelles Wetter: Weihenstephan-Dürnast (478m)

6-stündlich | Neueste Meldungen
Ortszeit Temperatur Wetter
Mi, 15.08. 20:00 21.3° C leicht bewölkt
Mi, 15.08. 14:00 22.6° C bewölkt
Mi, 15.08. 8:00 16.3° C wolkig
Mi, 15.08. 2:00 17.0° C wolkig
Di, 14.08. 20:00 21.2° C bedeckt
Di, 14.08. 14:00 22.2° C leicht bewölkt
Di, 14.08. 8:00 16.4° C bewölkt
Di, 14.08. 2:00 17.1° C bedeckt
Ortszeit Temperatur Wetter
Mi, 15.08. 23:00 16.8° C fast wolkenlos
Mi, 15.08. 22:40 16.9° C leicht bewölkt
Mi, 15.08. 22:30 16.8° C bewölkt
Mi, 15.08. 22:20 16.8° C bewölkt
Mi, 15.08. 22:10 16.8° C wolkig
Mi, 15.08. 22:00 16.4° C leicht bewölkt
Mi, 15.08. 21:50 16.4° C leicht bewölkt
Mi, 15.08. 21:30 16.6° C wolkenlos
Mi, 15.08. 21:00 17.7° C wolkig
Mi, 15.08. 20:30 19.3° C wolkenlos
Mi, 15.08. 20:00 21.3° C leicht bewölkt
Ortszeit Relative Feuchte Sichtweite
Mi, 15.08. 20:00 70% 45 km
Mi, 15.08. 14:00 53% 40 km
Mi, 15.08. 8:00 84% 23 km
Mi, 15.08. 2:00 77% 60 km
Di, 14.08. 20:00 54% 45 km
Di, 14.08. 14:00 49% 24 km
Di, 14.08. 8:00 94% 19 km
Di, 14.08. 2:00 97% 9 km
Ortszeit Relative Feuchte Sichtweite
Mi, 15.08. 23:00 79% 35 km
Mi, 15.08. 22:40 80% -
Mi, 15.08. 22:30 82% 40 km
Mi, 15.08. 22:20 82% -
Mi, 15.08. 22:10 82% -
Mi, 15.08. 22:00 87% 30 km
Mi, 15.08. 21:50 87% -
Mi, 15.08. 21:30 90% 30 km
Mi, 15.08. 21:00 85% 30 km
Mi, 15.08. 20:30 78% 35 km
Mi, 15.08. 20:00 70% 45 km
Ortszeit Niederschlagsmenge Niederschlagsart
Mi, 15.08. 20:00 0.0 l/m2 in 12 Std. -
Mi, 15.08. 14:00 0.0 l/m2 in 6 Std. -
Mi, 15.08. 8:00 0.1 l/m2 in 12 Std. -
Mi, 15.08. 2:00 0.1 l/m2 in 6 Std. Regen
Di, 14.08. 20:00 0.0 l/m2 in 12 Std. -
Di, 14.08. 14:00 0.0 l/m2 in 6 Std. -
Di, 14.08. 8:00 0.1 l/m2 in 12 Std. -
Di, 14.08. 2:00 0.1 l/m2 in 6 Std. Regen
Ortszeit Niederschlagsmenge Niederschlagsart
Mi, 15.08. 23:00 0.0 l/m2 in 1 Std. -
Mi, 15.08. 22:40 keine Meldung -
Mi, 15.08. 22:30 0.0 l/m2 in 1 Std. -
Mi, 15.08. 22:20 keine Meldung -
Mi, 15.08. 22:10 keine Meldung -
Mi, 15.08. 22:00 0.0 l/m2 in 1 Std. -
Mi, 15.08. 21:50 keine Meldung -
Mi, 15.08. 21:30 0.0 l/m2 in 1 Std. -
Mi, 15.08. 21:00 0.0 l/m2 in 1 Std. -
Mi, 15.08. 20:30 0.0 l/m2 in 1 Std. -
Mi, 15.08. 20:00 0.0 l/m2 in 1 Std. -
Ortszeit Stärke Spitze Richtung
km/h Bft. km/h Grad Sektor
Mi, 15.08. 20:00 0 0 25 - -
Mi, 15.08. 14:00 11 2 25 310° NW
Mi, 15.08. 8:00 9 2 13 270° W
Mi, 15.08. 2:00 9 2 15 290° W
Di, 14.08. 20:00 9 2 37 310° NW
Di, 14.08. 14:00 20 4 30 280° W
Di, 14.08. 8:00 9 2 22 260° W
Di, 14.08. 2:00 9 2 13 240° SW
Ortszeit Stärke Spitze Richtung
km/h Bft. km/h Grad Sektor
Mi, 15.08. 23:00 4 1 7 30° NO
Mi, 15.08. 22:40 4 1 - 10° N
Mi, 15.08. 22:30 4 1 7 340° N
Mi, 15.08. 22:20 4 1 - 340° N
Mi, 15.08. 22:10 4 1 - 340° N
Mi, 15.08. 22:00 4 1 7 300° NW
Mi, 15.08. 21:50 4 1 - 300° NW
Mi, 15.08. 21:30 4 1 7 270° W
Mi, 15.08. 21:00 4 1 4 280° W
Mi, 15.08. 20:30 2 1 4 280° W
Mi, 15.08. 20:00 0 0 7 - -
Ortszeit Untergrenze Bedeckung Gattung
total tief tief mittel hoch
Mi, 15.08. 20:00 10500 m 7/8 0/8 - - -
Mi, 15.08. 14:00 1230 m 7/8 7/8 - - -
Mi, 15.08. 8:00 1440 m 8/8 8/8 - - -
Mi, 15.08. 2:00 3000 m 6/8 6/8 - - -
Di, 14.08. 20:00 2700 m 8/8 8/8 - - -
Di, 14.08. 14:00 1410 m 3/8 3/8 - - -
Di, 14.08. 8:00 1110 m 8/8 7/8 - - -
Di, 14.08. 2:00 3300 m 8/8 8/8 - - -
Ortszeit Bedeckungsgrad in Achtel und Wolkenuntergrenze
Mi, 15.08. 23:00 1(1500m)
Mi, 15.08. 22:40 3(1500m) 4(2400m)
Mi, 15.08. 22:30 6(1500m) 7(9000m)
Mi, 15.08. 22:20 6(1500m) 7(9000m)
Mi, 15.08. 22:10 5(1500m) 6(9000m)
Mi, 15.08. 22:00 3(1500m) 3(2100m) 5(9000m)
Mi, 15.08. 21:50 3(1500m)
Mi, 15.08. 21:30 keine Wolken
Mi, 15.08. 21:00 5(1500m) 5(2100m)
Mi, 15.08. 20:30 1(1500m)
Mi, 15.08. 20:00 7(10500m)
Ortszeit Luftdruck NN (hPa) Tendenz (hPa in 3 Std.)
Mi, 15.08. 20:00 1018 - 0,5
Mi, 15.08. 14:00 1019 - 0,5
Mi, 15.08. 8:00 1020 + 0,7
Mi, 15.08. 2:00 1019 + 0,3
Di, 14.08. 20:00 1015 + 0,9
Di, 14.08. 14:00 1014 0,0
Di, 14.08. 8:00 1014 + 1,5
Di, 14.08. 2:00 1012 + 0,5
Ortszeit Luftdruck NN (hPa) Tendenz (hPa in 3 Std.)
Mi, 15.08. 23:00 1020 + 0,7
Mi, 15.08. 22:40 1020 keine Meldung
Mi, 15.08. 22:30 1020 + 0,9
Mi, 15.08. 22:20 1020 keine Meldung
Mi, 15.08. 22:10 1020 keine Meldung
Mi, 15.08. 22:00 1020 + 0,8
Mi, 15.08. 21:50 1020 keine Meldung
Mi, 15.08. 21:30 1020 + 0,4
Mi, 15.08. 21:00 1019 0,0
Mi, 15.08. 20:30 1019 - 0,3
Mi, 15.08. 20:00 1018 - 0,5
Ortszeit Schneehöhe (cm)
Mi, 15.08. 20:00 -
Mi, 15.08. 14:00 -
Mi, 15.08. 8:00 -
Mi, 15.08. 2:00 -
Di, 14.08. 20:00 -
Di, 14.08. 14:00 -
Di, 14.08. 8:00 -
Di, 14.08. 2:00 -
Ortszeit Schneehöhe (cm)
Mi, 15.08. 23:00 -
Mi, 15.08. 22:40 -
Mi, 15.08. 22:30 -
Mi, 15.08. 22:20 -
Mi, 15.08. 22:10 -
Mi, 15.08. 22:00 -
Mi, 15.08. 21:50 -
Mi, 15.08. 21:30 -
Mi, 15.08. 21:00 -
Mi, 15.08. 20:30 -
Mi, 15.08. 20:00 -
Link zu dieser Seite / Seite empfehlen

Das Wetter in ...